Location: Znojmo
(48.8500°N, 16.0500°E)
Time: 04:53:08
(UTC+02:00)

ISS - Pass Details

Date: 28 March 2019
Orbit: 408 x 410 km, 51.6° (Epoch: 21 April)

Event Time Altitude Azimuth Distance (km) Brightness Sun altitude
Rises 20:55:30 0° 285° (WNW) 2,338 1.1 -24.4°
Reaches altitude 10° 20:57:37 10° 290° (WNW) 1,475 -0.1 -24.6°
Enters shadow 20:59:38 32° 306° (NW) 727 -2.0 -24.9°
